TimeMDT,TemperatureF,Dew PointF,Humidity,Sea Level PressureIn,VisibilityMPH,Wind Direction,Wind SpeedMPH,Gust SpeedMPH,PrecipitationIn,Events,Conditions,WindDirDegrees,DateUTC
12:53 AM,25.0,21.9,88,30.31,6.0,East,4.6,-,0.00,Snow,Light Snow,90,2012-10-27 06:53:00
1:53 AM,25.0,21.9,88,30.30,5.0,East,4.6,-,0.00,Snow,Light Snow,80,2012-10-27 07:53:00
2:20 AM,24.8,21.2,86,30.21,9.0,ENE,4.6,-,0.00,,Overcast,70,2012-10-27 08:20:00
2:50 AM,24.8,21.2,86,30.21,10.0,ENE,3.5,-,0.00,,Overcast,60,2012-10-27 08:50:00
2:53 AM,25.0,21.9,88,30.30,10.0,ENE,4.6,-,0.00,,Overcast,70,2012-10-27 08:53:00
3:10 AM,24.8,21.2,86,30.21,10.0,ENE,5.8,-,N/A,,Overcast,70,2012-10-27 09:10:00
3:53 AM,25.0,21.9,88,30.29,10.0,ENE,5.8,-,N/A,,Overcast,70,2012-10-27 09:53:00
4:35 AM,24.8,21.2,86,30.20,10.0,ENE,4.6,-,N/A,,Overcast,60,2012-10-27 10:35:00
4:53 AM,25.0,21.9,88,30.29,10.0,ENE,5.8,-,N/A,,Overcast,60,2012-10-27 10:53:00
5:53 AM,25.0,21.9,88,30.30,3.0,ENE,6.9,-,0.00,Snow,Light Snow,60,2012-10-27 11:53:00
6:53 AM,25.0,21.9,88,30.31,10.0,ENE,5.8,-,0.00,,Overcast,70,2012-10-27 12:53:00
7:53 AM,24.1,21.0,88,30.32,10.0,ENE,5.8,-,N/A,,Overcast,60,2012-10-27 13:53:00
9:53 AM,27.0,21.9,81,30.33,10.0,ENE,10.4,-,N/A,,Overcast,70,2012-10-27 15:53:00
10:53 AM,28.9,21.0,72,30.31,10.0,East,13.8,-,N/A,,Mostly Cloudy,80,2012-10-27 16:53:00
11:25 AM,28.4,21.2,74,30.21,10.0,East,9.2,-,N/A,,Overcast,80,2012-10-27 17:25:00
11:53 AM,30.9,21.9,69,30.30,10.0,ESE,12.7,-,N/A,,Overcast,110,2012-10-27 17:53:00
12:53 PM,30.9,21.9,69,30.29,10.0,East,9.2,-,N/A,,Overcast,80,2012-10-27 18:53:00
1:53 PM,30.9,21.0,67,30.29,10.0,ESE,6.9,-,N/A,,Overcast,120,2012-10-27 19:53:00
2:53 PM,32.0,21.0,64,30.27,10.0,East,8.1,-,N/A,,Overcast,80,2012-10-27 20:53:00
3:49 PM,33.8,21.2,60,30.17,10.0,ESE,8.1,-,N/A,,Mostly Cloudy,120,2012-10-27 21:49:00
3:53 PM,33.1,21.9,64,30.26,10.0,ESE,9.2,-,N/A,,Mostly Cloudy,120,2012-10-27 21:53:00
4:00 PM,33.8,21.2,60,30.17,10.0,SE,6.9,-,N/A,,Mostly Cloudy,130,2012-10-27 22:00:00
4:53 PM,32.0,21.9,66,30.27,10.0,ESE,9.2,-,N/A,,Mostly Cloudy,110,2012-10-27 22:53:00
5:53 PM,30.9,21.9,69,30.27,10.0,ESE,6.9,-,N/A,,Overcast,120,2012-10-27 23:53:00
6:53 PM,30.0,21.9,72,30.28,10.0,East,6.9,-,N/A,,Overcast,100,2012-10-28 00:53:00
7:14 PM,30.2,21.2,69,30.20,10.0,East,6.9,-,N/A,,Overcast,100,2012-10-28 01:14:00
7:53 PM,30.0,21.9,72,30.29,10.0,East,8.1,-,N/A,,Overcast,90,2012-10-28 01:53:00
8:53 PM,28.0,21.0,75,30.29,10.0,ENE,8.1,-,N/A,,Overcast,70,2012-10-28 02:53:00
9:53 PM,28.4,23.0,80,30.18,4.0,East,8.1,-,N/A,Snow,Light Snow,100,2012-10-28 03:53:00
9:59 PM,28.4,23.0,80,30.18,2.5,ESE,9.2,-,N/A,Snow,Light Snow,110,2012-10-28 03:59:00
10:10 PM,28.4,24.8,86,30.18,1.8,ESE,8.1,-,0.00,Snow,Light Snow,120,2012-10-28 04:10:00
10:19 PM,28.4,24.8,86,30.18,3.0,ESE,9.2,-,N/A,Snow,Light Snow,110,2012-10-28 04:19:00
10:29 PM,28.4,24.8,86,30.18,5.0,East,8.1,-,0.00,Snow,Light Snow,90,2012-10-28 04:29:00
10:53 PM,28.0,24.1,85,30.26,10.0,East,8.1,-,0.00,,Overcast,90,2012-10-28 04:53:00
11:53 PM,28.0,24.1,85,30.26,10.0,East,6.9,-,N/A,,Overcast,90,2012-10-28 05:53:00